Temp
20 21 21 22 22 22 22 22 22 22 22 22 22 22 22 21 21 21 21 21 21 21 21 20 20 20 20 20 20 20 20 20 21 21 21 21 21 20 20 20 21 21
20 20 21 21 22 22 22 22 22 22 22 22 22 22 22 22 21 21 21 21 21 21 21 20 20 20 20 20 20 20 20 20 21 21 21 21 21 21 21 21 21 21
20 20 20 21 22 23 22 22 22 23 22 22 22 22 22 22 22 22 21 21 21 21 21 21 21 20 20 20 20 20 20 21 21 21 21 21 21 21 21 21 21 21
21 21 21 21 22 22 23 22 22 23 22 22 22 22 22 22 22 22 21 21 21 21 21 21 21 21 21 20 20 20 20 21 21 21 21 21 21 21 21 21 21 21
21 21 21 21 21 21 22 22 22 22 22 22 22 22 22 22 22 22 22 22 22 21 21 21 21 21 21 21 21 20 21 21 21 21 21 21 21 22 21 21 21 21
22 22 22 21 21 21 22 22 23 23 22 22 22 22 22 22 22 22 22 22 22 22 21 21 21 21 21 21 21 21 21 21 21 21 21 20 21 22 22 22 22 22
22 22 22 21 21 22 22 23 23 23 23 22 22 22 22 23 23 22 22 22 22 22 22 21 21 21 21 21 21 21 21 21 21 21 21 20 21 22 22 22 22 22
22 22 22 22 22 22 22 23 23 23 23 22 22 22 23 23 23 23 22 22 22 22 22 22 21 21 21 21 22 22 22 22 21 21 21 20 20 21 22 22 22 22
23 22 22 22 22 22 22 23 23 23 23 23 23 23 23 23 23 23 23 23 22 22 22 22 22 22 21 21 22 22 22 22 22 22 22 21 21 22 22 22 22 22
23 23 22 22 22 22 22 23 22 23 23 23 23 23 23 23 23 23 23 23 23 22 22 22 22 22 22 21 22 22 22 22 22 22 22 22 22 22 22 22 22 22
23 23 23 23 23 22 23 23 22 22 23 23 23 23 23 23 23 23 23 23 23 23 23 23 23 22 22 22 22 22 23 23 23 22 22 22 22 22 22 22 22 22
23 23 23 23 23 23 23 22 22 21 22 23 24 24 23 23 23 23 23 23 23 23 23 23 23 23 23 22 22 22 22 23 23 23 23 23 22 22 22 22 22 22
24 23 23 23 23 23 23 22 22 21 22 23 24 24 23 23 24 24 24 23 23 23 23 23 23 23 23 23 23 22 22 23 23 23 23 23 23 23 22 22 22 22
24 24 24 23 23 23 23 22 22 22 22 23 24 24 24 24 24 24 24 24 24 24 24 23 23 23 23 23 23 23 23 23 23 23 23 23 23 23 23 22 22 22
25 24 24 24 23 23 23 23 23 23 23 23 23 23 23 24 23 23 24 24 24 24 24 24 23 23 23 24 24 23 23 23 23 23 23 23 23 23 23 23 23 23
25 25 24 24 24 24 23 23 23 23 23 23 23 23 23 23 23 23 23 23 24 24 24 24 24 24 24 24 24 24 24 23 23 23 23 23 23 23 23 23 23 23
25 25 25 24 24 24 24 24 23 23 23 23 23 23 23 23 23 23 22 22 23 24 24 24 24 24 24 24 24 24 24 24 24 23 23 23 23 23 23 23 24 24
25 25 25 25 24 24 24 24 24 24 24 24 23 23 23 23 23 23 23 22 22 22 23 24 24 24 24 24 24 24 24 24 24 24 24 24 24 24 24 24 24 24
25 25 25 25 25 24 24 24 24 24 24 24 24 24 23 23 23 23 23 22 22 22 22 23 24 24 25 25 25 25 24 24 24 24 24 24 24 24 24 24 24 24
25 25 25 25 25 24 24 24 24 24 24 24 24 24 23 23 23 23 23 23 22 22 22 23 23 24 25 25 25 25 24 24 24 24 24 24 24 24 24 24 24 24
25 25 25 25 25 24 24 24 24 24 24 24 24 24 24 24 23 23 23 23 23 22 22 22 23 23 25 25 25 25 25 24 24 24 24 24 24 24 24 24 24 24
25 25 25 25 24 24 24 24 24 24 24 24 24 24 24 24 24 23 23 23 23 23 22 22 23 23 24 25 25 25 24 24 24 24 23 24 24 24 24 24 24 24
25 25 25 24 24 24 24 24 24 24 24 24 24 24 24 24 24 24 23 23 23 23 23 23 23 23 24 24 25 25 24 24 24 23 23 24 24 24 24 24 24 24
25 25 25 25 24 24 24 24 24 24 24 24 24 24 24 24 24 24 24 24 24 23 23 23 23 23 24 24 24 24 24 24 23 23 23 24 24 24 24 24 24 24
25 25 25 25 25 24 24 24 24 24 24 24 24 24 24 24 24 24 24 24 24 24 23 23 23 23 23 24 24 24 24 23 23 23 23 23 24 24 24 24 24 24
25 25 25 25 25 24 24 24 24 24 24 24 24 24 24 23 23 23 23 23 23 23 23 23 23 23 23 23 24 24 23 23 23 23 23 23 23 23 23 24 24 24
Height
1556 1559 1561 1563 1565 1568 1570 1572 1574 1576 1578 1580 1582 1584 1585 1587 1588 1590 1591 1592 1594 1595 1596 1597 1598 1599 1600 1601 1602 1602 1603 1604 1604 1605 1605 1606 1607 1608 1608 1609 1609 1609
1554 1556 1558 1560 1562 1565 1567 1569 1571 1573 1575 1578 1580 1581 1583 1585 1587 1588 1590 1591 1592 1593 1594 1596 1596 1597 1598 1599 1600 1601 1602 1603 1603 1604 1605 1605 1606 1607 1607 1608 1608 1608
1550 1553 1555 1557 1559 1562 1565 1567 1569 1571 1573 1575 1577 1579 1581 1583 1584 1586 1588 1589 1590 1591 1593 1594 1595 1596 1597 1598 1599 1600 1601 1602 1602 1603 1604 1604 1605 1606 1606 1607 1607 1607
1547 1550 1552 1555 1557 1560 1562 1564 1566 1568 1570 1572 1574 1577 1579 1580 1582 1584 1585 1587 1588 1589 1591 1592 1593 1594 1595 1596 1597 1598 1599 1600 1601 1602 1602 1603 1603 1604 1605 1606 1606 1606
1544 1547 1549 1552 1554 1557 1559 1561 1563 1565 1568 1570 1572 1574 1576 1578 1580 1581 1583 1584 1586 1587 1589 1590 1591 1592 1593 1594 1596 1597 1597 1599 1599 1600 1600 1601 1602 1603 1604 1604 1605 1605
1541 1543 1546 1549 1551 1554 1556 1558 1561 1563 1565 1568 1570 1572 1573 1575 1577 1579 1581 1582 1584 1585 1586 1588 1589 1590 1592 1593 1594 1595 1596 1597 1598 1598 1599 1600 1601 1602 1602 1603 1603 1604
1537 1540 1543 1546 1548 1551 1553 1555 1558 1560 1563 1565 1567 1569 1570 1572 1574 1576 1578 1580 1581 1583 1584 1586 1587 1588 1590 1590 1592 1593 1593 1595 1596 1597 1598 1598 1599 1600 1601 1601 1601 1602
1534 1537 1540 1542 1545 1548 1550 1553 1555 1557 1560 1562 1564 1566 1568 1570 1572 1573 1575 1577 1578 1580 1581 1583 1584 1586 1587 1588 1589 1591 1592 1593 1594 1595 1596 1596 1597 1598 1599 1600 1600 1600
1531 1534 1536 1539 1542 1545 1547 1550 1552 1554 1557 1559 1561 1563 1565 1567 1569 1571 1572 1574 1576 1577 1579 1580 1582 1583 1585 1586 1587 1588 1589 1591 1592 1593 1594 1595 1596 1596 1597 1598 1598 1599
1527 1530 1533 1536 1539 1542 1544 1547 1550 1551 1553 1556 1558 1560 1562 1564 1566 1568 1569 1571 1572 1574 1576 1577 1579 1580 1582 1583 1584 1586 1587 1588 1590 1591 1592 1593 1594 1595 1596 1596 1597 1597
1523 1527 1530 1532 1535 1538 1541 1544 1547 1549 1550 1552 1555 1557 1559 1561 1563 1565 1566 1567 1569 1571 1573 1574 1576 1578 1579 1580 1582 1583 1584 1586 1587 1588 1590 1590 1592 1593 1593 1594 1595 1595
1519 1523 1526 1529 1532 1535 1538 1541 1544 1546 1548 1549 1552 1554 1556 1558 1559 1561 1563 1564 1566 1568 1570 1571 1573 1575 1576 1578 1579 1580 1582 1583 1585 1586 1587 1588 1589 1590 1591 1592 1593 1593
1515 1518 1522 1525 1528 1532 1535 1538 1540 1543 1545 1546 1549 1551 1553 1555 1556 1558 1560 1561 1563 1565 1567 1568 1570 1571 1573 1575 1577 1578 1579 1581 1582 1584 1585 1586 1587 1588 1589 1590 1590 1591
1511 1515 1518 1522 1525 1528 1532 1534 1537 1540 1542 1543 1546 1548 1550 1552 1553 1555 1556 1558 1560 1562 1564 1565 1567 1568 1570 1571 1573 1575 1577 1578 1580 1581 1583 1584 1585 1586 1587 1588 1588 1589
1507 1511 1515 1519 1522 1525 1528 1531 1533 1536 1538 1540 1542 1544 1547 1549 1550 1552 1553 1555 1557 1558 1560 1562 1563 1565 1566 1568 1570 1572 1574 1576 1577 1578 1580 1581 1582 1583 1584 1585 1586 1587
1504 1508 1512 1515 1518 1521 1524 1527 1530 1532 1535 1537 1539 1541 1544 1545 1547 1549 1550 1552 1553 1555 1557 1558 1559 1561 1562 1565 1567 1569 1571 1573 1574 1576 1577 1578 1579 1580 1581 1582 1583 1584
1500 1504 1508 1512 1514 1517 1520 1524 1527 1529 1531 1534 1536 1538 1540 1542 1544 1545 1547 1549 1550 1551 1553 1554 1556 1558 1559 1562 1564 1566 1568 1570 1571 1573 1574 1575 1576 1577 1579 1580 1580 1581
1497 1501 1504 1508 1511 1513 1517 1520 1523 1526 1528 1530 1532 1535 1536 1538 1540 1542 1543 1545 1547 1548 1549 1551 1552 1554 1556 1559 1561 1563 1565 1567 1568 1570 1571 1572 1573 1574 1575 1577 1577 1578
1493 1497 1500 1504 1507 1510 1513 1517 1519 1522 1524 1526 1529 1531 1533 1535 1536 1538 1540 1542 1543 1544 1546 1547 1549 1550 1552 1555 1558 1560 1562 1564 1565 1566 1567 1568 1569 1571 1572 1573 1574 1575
1489 1493 1497 1500 1503 1506 1509 1512 1515 1518 1520 1523 1526 1528 1529 1531 1533 1535 1536 1538 1540 1541 1542 1544 1545 1546 1548 1551 1554 1556 1558 1560 1562 1563 1564 1565 1566 1567 1568 1569 1570 1571
1486 1489 1493 1496 1500 1503 1506 1508 1511 1514 1517 1519 1522 1524 1526 1527 1529 1531 1533 1534 1536 1538 1539 1540 1542 1543 1544 1547 1549 1552 1554 1556 1557 1558 1559 1561 1562 1563 1564 1565 1566 1567
1482 1486 1490 1493 1496 1499 1502 1505 1507 1510 1513 1516 1518 1521 1522 1524 1526 1528 1529 1531 1533 1534 1535 1536 1538 1539 1540 1542 1545 1547 1549 1551 1553 1554 1555 1556 1558 1559 1560 1561 1562 1563
1479 1482 1486 1489 1492 1495 1498 1501 1504 1506 1509 1512 1514 1517 1519 1520 1522 1524 1526 1527 1529 1530 1531 1532 1534 1535 1536 1538 1541 1543 1545 1546 1548 1549 1550 1552 1553 1555 1556 1557 1558 1559
1476 1479 1482 1486 1488 1491 1494 1497 1500 1503 1506 1508 1511 1513 1515 1517 1518 1520 1522 1523 1524 1525 1526 1528 1530 1531 1532 1534 1536 1538 1540 1542 1543 1545 1546 1547 1549 1551 1552 1553 1554 1555
1473 1476 1479 1482 1485 1488 1491 1494 1497 1500 1502 1504 1507 1509 1511 1513 1515 1516 1517 1519 1520 1521 1522 1524 1526 1527 1528 1530 1532 1534 1536 1537 1539 1540 1541 1543 1545 1546 1547 1549 1550 1551
1470 1473 1476 1479 1482 1485 1488 1491 1494 1496 1499 1501 1503 1505 1508 1509 1511 1512 1513 1515 1516 1518 1519 1520 1522 1523 1524 1525 1527 1529 1531 1533 1534 1535 1536 1538 1540 1542 1543 1545 1546 1547
Wind_Speed
25 27 29 30 30 31 30 29 29 27 27 27 26 25 23 23 22 20 18 16 15 15 14 14 13 12 12 11 10 9 9 9 9 8 6 5 4 4 4 4 4 5
25 26 27 26 28 31 30 29 28 27 26 26 26 25 24 22 22 21 19 17 16 16 15 15 14 13 13 12 11 10 9 10 10 9 8 7 6 6 6 5 5 6
26 26 25 25 28 30 29 29 29 27 26 26 26 25 24 22 21 21 20 18 18 17 16 16 15 14 14 13 12 11 10 11 11 10 9 9 8 7 7 7 7 7
29 28 27 27 28 29 30 30 29 28 27 26 26 25 24 23 22 21 20 19 19 18 18 17 16 15 15 14 13 13 12 12 12 12 11 10 9 8 8 8 8 8
31 30 29 28 27 27 29 30 30 29 28 26 26 25 25 24 23 22 21 20 19 19 19 18 17 16 16 15 15 14 14 13 13 14 12 10 10 9 9 9 9 9
33 32 30 29 27 26 28 31 30 29 28 27 26 26 25 25 24 23 22 21 20 20 19 19 19 18 17 17 17 16 16 15 14 14 12 10 10 10 10 11 10 9
36 35 32 29 29 29 30 31 30 29 29 28 27 27 26 26 25 25 24 23 22 21 20 20 20 19 19 19 19 18 18 17 16 16 14 11 10 11 12 12 11 11
37 36 34 31 30 30 31 31 30 29 29 28 28 28 27 26 26 26 25 25 24 23 22 21 21 20 19 20 20 20 20 19 19 18 17 14 12 12 13 12 12 12
38 37 35 33 31 31 31 30 30 29 28 28 28 28 28 27 27 27 27 27 26 25 24 23 22 21 20 20 21 22 22 21 20 20 19 18 16 15 14 13 14 13
38 37 36 34 33 32 32 30 29 28 28 28 28 28 28 28 27 27 28 28 27 27 26 24 23 22 21 21 22 23 23 22 22 22 21 20 19 17 15 15 15 14
38 37 36 36 34 33 33 31 29 29 29 29 28 28 28 28 28 28 28 29 29 28 27 26 25 24 23 22 22 23 23 23 23 23 22 21 20 19 17 16 16 16
39 38 38 37 36 34 33 32 30 29 29 30 29 29 29 29 29 29 29 30 29 28 28 27 26 25 25 24 24 23 24 24 23 23 22 21 20 19 19 18 18 17
40 40 39 37 37 35 34 32 31 30 30 30 30 29 29 30 30 30 30 30 29 29 28 28 27 27 26 26 26 25 25 24 24 23 22 21 20 20 20 19 19 18
42 41 40 38 37 36 35 33 32 32 31 31 30 30 30 31 31 30 30 30 30 29 29 28 28 28 27 28 27 27 26 26 25 24 24 23 22 22 21 20 20 20
43 42 40 39 38 37 36 36 35 34 33 32 31 30 30 30 30 30 30 31 31 30 30 30 29 29 29 29 29 28 28 27 27 26 26 25 24 23 22 21 21 21
43 42 41 40 40 38 37 37 36 35 34 33 31 30 30 30 30 29 30 30 31 31 30 30 30 30 29 29 29 29 29 28 29 28 27 27 26 25 24 23 23 22
43 42 42 41 41 40 38 37 37 36 35 33 32 31 31 31 30 31 30 29 30 30 30 30 30 30 30 29 28 29 29 29 29 29 29 28 27 27 26 25 25 24
42 42 42 42 42 41 39 38 37 36 36 35 34 33 33 32 32 32 32 30 30 30 31 31 31 31 31 30 29 29 29 29 29 29 30 30 29 28 27 26 26 26
42 42 42 43 43 42 40 39 38 37 37 36 35 34 34 34 34 33 33 33 32 32 32 31 32 32 32 30 30 30 29 29 29 30 30 30 30 29 28 28 28 27
41 42 42 43 43 43 42 41 39 39 38 36 35 35 35 35 35 34 34 34 33 33 33 32 32 33 33 31 30 30 30 30 30 30 31 31 31 30 30 29 29 29
41 41 42 42 43 43 42 41 40 39 38 36 35 35 35 35 35 34 34 34 33 33 33 34 34 35 35 33 31 31 31 31 31 32 32 32 33 32 31 31 30 30
40 40 41 41 41 41 41 41 40 39 38 37 36 36 36 35 34 34 33 33 32 32 33 33 34 35 36 35 34 33 32 32 32 33 33 33 34 33 33 32 32 31
39 39 40 40 41 41 41 41 40 39 38 37 36 36 35 35 34 33 33 32 32 33 33 34 34 35 36 35 34 34 33 33 33 33 33 34 34 34 34 33 33 32
37 37 38 39 40 41 40 40 39 38 37 36 35 34 34 35 34 33 33 33 33 33 33 33 33 33 34 34 34 33 33 32 32 33 33 34 34 34 34 33 33 33
36 36 36 37 38 39 39 39 38 37 36 35 35 34 34 34 34 34 34 34 33 34 33 33 32 32 33 33 33 32 32 31 32 32 33 34 34 33 33 33 32 32
36 36 35 36 36 37 37 37 37 36 36 35 35 34 34 33 33 33 34 33 33 33 32 32 32 31 33 33 32 32 32 31 32 33 33 33 33 33 32 32 32 31
Wind_Direction
217 221 223 225 226 228 229 229 231 231 230 231 234 237 237 235 232 228 227 227 225 226 226 226 225 223 224 224 224 227 231 234 235 237 240 233 227 226 228 237 250 254
214 219 221 223 224 225 227 228 229 229 229 229 231 235 237 236 234 231 229 228 227 226 227 229 228 225 225 226 228 227 230 237 237 237 242 241 233 229 229 233 243 257
214 217 218 220 223 224 225 226 228 228 228 228 228 231 235 235 234 233 231 230 229 228 227 228 228 227 227 228 232 230 230 240 241 236 240 243 238 232 232 233 240 252
217 218 219 221 222 224 225 226 227 227 227 227 227 228 231 233 234 232 231 231 230 229 228 227 227 228 230 230 233 234 232 239 246 239 235 240 241 237 236 236 239 249
219 218 220 221 221 222 225 225 226 227 227 226 227 227 228 230 231 231 231 230 229 228 229 229 228 228 232 232 233 236 235 237 248 247 239 237 241 244 244 243 243 249
219 219 220 221 220 220 222 225 226 227 228 227 227 228 228 228 228 229 231 230 228 229 229 230 230 230 233 236 235 237 238 236 241 249 246 238 238 243 248 249 250 251
220 221 221 220 221 222 223 225 226 226 228 228 227 228 228 227 227 227 229 230 230 230 231 231 232 231 232 237 238 238 240 238 237 242 244 239 235 237 244 250 252 254
219 222 222 221 221 222 223 224 225 225 226 227 227 227 226 226 226 226 227 229 230 232 232 233 234 233 233 236 238 239 241 242 241 242 244 245 245 246 250 254 256 257
218 220 221 221 220 220 222 223 224 224 224 224 225 226 226 225 225 226 227 228 230 232 233 233 235 235 234 234 237 239 240 242 244 245 248 251 254 257 258 258 258 259
216 218 219 219 218 219 221 221 222 223 223 222 222 224 226 224 223 225 227 229 230 231 232 233 234 235 235 236 238 238 239 241 243 246 248 251 254 256 256 255 257 259
215 216 217 218 217 218 219 219 220 223 224 223 220 222 224 224 223 224 227 229 230 231 232 233 234 235 236 237 238 238 239 240 243 245 248 250 252 253 252 252 255 256
214 215 216 216 215 216 217 218 218 220 224 224 221 220 222 224 224 224 226 229 231 231 232 233 235 236 237 237 237 238 239 240 242 244 247 248 249 251 252 253 255 256
213 213 214 215 215 214 216 218 218 218 222 225 222 221 222 225 226 226 227 229 231 232 233 234 236 237 238 237 236 236 238 239 240 242 244 246 247 249 252 254 255 257
213 212 213 214 214 214 215 217 218 218 221 225 224 223 223 225 227 230 230 231 232 233 233 235 238 239 239 237 235 235 237 239 240 240 242 245 249 251 251 253 255 258
213 213 213 214 215 214 215 217 219 220 222 225 225 224 223 225 226 229 232 234 233 233 234 235 237 239 239 237 235 235 236 238 240 240 242 246 250 252 252 254 255 256
213 213 213 214 215 215 215 216 219 221 222 223 224 224 223 224 225 227 230 233 235 234 234 235 236 238 238 237 236 235 236 238 239 241 244 247 249 251 253 255 256 257
215 213 214 215 216 217 216 216 218 221 222 223 223 224 225 225 226 227 228 230 234 235 234 235 236 237 238 237 236 236 236 238 240 242 245 247 249 250 252 254 256 258
216 214 214 215 217 217 217 216 218 220 222 223 223 224 225 226 227 229 229 229 232 235 236 236 237 238 238 238 236 236 236 238 240 243 245 247 249 250 252 253 255 257
217 215 215 216 217 218 217 217 218 219 221 223 224 225 227 229 230 231 232 232 233 236 238 237 238 240 239 237 237 236 236 236 239 242 245 248 249 251 252 253 254 255
217 217 217 218 219 219 219 218 218 220 222 223 225 228 230 232 233 234 235 235 236 238 239 239 239 241 240 238 236 236 236 236 238 240 243 246 249 251 252 253 254 255
218 218 219 220 221 221 221 221 221 222 223 225 226 229 232 233 235 237 238 239 239 240 241 241 241 241 241 239 236 235 235 236 237 239 241 244 247 249 251 253 254 256
217 218 219 221 222 223 224 224 224 224 225 226 227 230 233 235 236 238 240 241 242 242 242 243 242 242 242 241 239 238 238 237 238 240 241 243 245 247 250 252 254 256
217 218 219 220 222 224 224 224 225 226 226 226 227 229 233 236 237 238 239 240 241 241 242 242 243 243 244 243 242 241 241 241 241 242 242 243 244 246 248 251 253 254
217 218 219 220 222 223 224 224 225 226 226 226 227 228 231 235 236 237 238 238 239 241 242 243 243 244 245 245 244 243 243 243 243 244 244 244 244 246 247 249 251 253
218 218 219 220 222 222 223 224 225 225 226 226 227 228 230 232 235 237 238 239 240 242 244 244 244 245 246 246 244 243 242 242 242 243 244 244 244 245 247 248 249 252
219 218 218 220 222 223 224 225 226 227 228 229 230 230 232 233 234 237 240 242 243 244 246 246 245 245 247 246 244 242 240 239 240 241 242 243 244 245 246 248 249 251